Printer-friendly version

IAU Minor Planet Center

Minor Planet Center

MPEC 2006-J38 : 2006 JY26

The following Minor Planet Electronic Circular may be linked-to from your own Web pages, but must not otherwise be redistributed electronically.


Read MPEC 2006-J37 Read MPEC 2006-J39


M.P.E.C. 2006-J38                                Issued 2006 May 8, 18:07 UT

     The Minor Planet Electronic Circulars contain information on unusual
         minor planets and routine data on comets.  They are published
   on behalf of Commission 20 of the International Astronomical Union by the
          Minor Planet Center, Smithsonian Astrophysical Observatory,
                          Cambridge, MA 02138, U.S.A.

                  Supported in part by the Brinson Foundation
                  Supported in part by the TABASGO Foundation
             Prepared using the Tamkin Foundation Computer Network

                              MPC@CFA.HARVARD.EDU
          URL http://cfa-www.harvard.edu/iau/mpc.html  ISSN 1523-6714

                                   2006 JY26

Observations:
     K06J26Y* C2006 05 06.35516 14 17 08.91 -06 47 25.2          18.0 V EJ038703
     K06J26Y  C2006 05 06.35565 14 17 07.94 -06 47 26.8          18.1 V EJ038703
     K06J26Y  C2006 05 06.35615 14 17 07.00 -06 47 28.8          19.6 V EJ038703
     K06J26Y  C2006 05 06.35675 14 17 05.92 -06 47 31.4          19.6 V EJ038703
     K06J26Y  C2006 05 06.39729 14 15 49.46 -06 50 45.4          18.6 V EJ038703
     K06J26Y  C2006 05 06.39793 14 15 48.24 -06 50 47.9          18.4 V EJ038703
     K06J26Y  C2006 05 06.39851 14 15 47.16 -06 50 51.0          19.1 V EJ038703
     K06J26Y  C2006 05 06.39910 14 15 46.00 -06 50 53.5          17.9 V EJ038703
     K06J26Y  C2006 05 06.42749 14 14 53.62 -06 53 06.6          18.9 V EJ038703
     K06J26Y  C2006 05 06.42826 14 14 52.15 -06 53 12.4          19.0 V EJ038703
     K06J26Y  C2006 05 06.42892 14 14 51.07 -06 53 13.4          18.9 V EJ038703
     K06J26Y  C2006 05 06.42959 14 14 49.77 -06 53 16.4          18.5 V EJ038703
     K06J26Y  C2006 05 06.44808 14 14 15.89 -06 54 28.2          18.8 R EJ038651
     K06J26Y  C2006 05 06.44989 14 14 12.63 -06 54 36.3          19.2 R EJ038651
     K06J26Y  C2006 05 06.45169 14 14 09.41 -06 54 45.5          18.7 R EJ038651
     K06J26Y  C2006 05 07.26039 13 49 35.83 -08 23 06.2          18.3 V EJ038703
     K06J26Y  C2006 05 07.26122 13 49 33.52 -08 23 11.5          18.9 V EJ038703
     K06J26Y  C2006 05 07.26194 13 49 31.44 -08 23 16.0          18.5 V EJ038703
     K06J26Y  C2006 05 07.26266 13 49 29.28 -08 23 22.8          17.9 V EJ038703
     K06J26Y  C2006 05 07.30126 13 47 36.30 -08 28 11.5          17.9 V EJ038703
     K06J26Y  C2006 05 07.30164 13 47 35.15 -08 28 13.7                 EJ038703
     K06J26Y  C2006 05 07.30198 13 47 34.04 -08 28 17.6                 EJ038703
     K06J26Y  C2006 05 07.30233 13 47 33.09 -08 28 19.6                 EJ038703
     K06J26Y 5C2006 05 08.16015 13 05 06.79 -10 41 20.6          18.6 R EJ038673
     K06J26Y 5C2006 05 08.16645 13 04 38.17 -10 42 35.4                 EJ038673
     K06J26Y 5C2006 05 08.18176 13 03 27.38 -10 45 36.4                 EJ038673
     K06J26Y 5C2006 05 08.19031 13 02 47.40 -10 47 16.2          18.2 R EJ038673
     K06J26Y  C2006 05 08.19075 13 02 32.46 -10 46 42.4          17.6 V EJ038G96
     K06J26Y  C2006 05 08.19100 13 02 31.30 -10 46 45.5          17.4 V EJ038G96
     K06J26Y  C2006 05 08.19124 13 02 30.08 -10 46 48.0          17.4 V EJ038G96
     K06J26Y  C2006 05 08.19150 13 02 28.96 -10 46 50.8          17.7 V EJ038G96
     K06J26Y 5C2006 05 08.20155 13 01 54.43 -10 49 26.9                 EJ038673
     K06J26Y 5C2006 05 08.21279 13 01 00.89 -10 51 36.0          19.0 R EJ038673

Observer details:
651 Grasslands Observatory, Tucson.  Observer J. E. McGaha.  0.62-m f/5.1
    reflector + CCD.
673 Table Mountain Observatory, Wrightwood.  Observer J. Young.  0.61-m f/16
    Cassegrain + CCD.
703 Catalina Sky Survey.  Observer E. J. Christensen.  Measurers E. C. Beshore,
    E. J. Christensen, G. J. Garradd, A. R. Gibbs, A. D. Grauer, R. E. Hill,
    R. A. Kowalski, S. M. Larson, R. H. McNaught.  0.68-m Schmidt + CCD.
G96 Mt. Lemmon Survey.  Observer A. D. Grauer.  Measurers E. C. Beshore,
    E. J. Christensen, G. J. Garradd, A. R. Gibbs, A. D. Grauer, R. E. Hill,
    R. A. Kowalski, S. M. Larson, R. H. McNaught.  1.5-m reflector + CCD.

Orbital elements:
2006 JY26                                                Earth MOID = 0.0017 AU
Epoch 2006 Mar. 6.0 TT = JDT 2453800.5                  MPC
M 188.46015              (2000.0)            P               Q
n   1.01342835     Peri.  296.78755     +0.96042866     +0.27737904
a   0.9816139      Node    47.12031     -0.24174293     +0.87518770
e   0.0867950      Incl.    1.97481     -0.13833704     +0.39636770
P   0.97           H   28.8           G   0.15           U   6
Residuals in seconds of arc
060506 703  0.2-  2.0-    060506 703  1.1-  0.2-    060507 703  0.3-  0.3-
060506 703  0.8-  1.3-    060506 651  0.8+  0.1+    060508 673  0.1-  0.1+
060506 703  0.6-  0.9-    060506 651  0.5+  0.4+    060508 673  1.4+  0.1+
060506 703  0.3+  0.6-    060506 651  0.4+  0.5-    060508 673  0.7-  0.3-
060506 703  0.2+  0.9-    060507 703  1.7-  1.4-    060508 673  1.1-  0.1-
060506 703  0.2-  0.4-    060507 703  0.2-  0.4-    060508 G96  2.0-  0.8-
060506 703  0.2-  0.7-    060507 703  0.0   0.6+    060508 G96  1.6-  1.0-
060506 703  1.1-  0.4-    060507 703  1.0-  0.7-    060508 G96  2.9-  0.8-
060506 703  0.7-  0.2-    060507 703  0.5+  0.1-    060508 G96  1.2-  0.6-
060506 703 (1.7-  2.4-)   060507 703  0.1+  0.5+    060508 673  0.1-  0.4-
060506 703  0.1+  0.4-    060507 703  1.5-  0.9-    060508 673  0.3+  0.2-

Ephemeris:
2006 JY26                a,e,i = 0.98, 0.09, 2                   q = 0.8964
Date    TT    R. A. (2000) Decl.     Delta      r     Elong.  Phase     V
2006 05 05    14 43.28   -05 06.3    0.00919  1.017   168.9    11.0    19.3
2006 05 06    14 25.83   -06 06.7    0.00757  1.016   168.0    11.9    19.0
2006 05 07    13 59.05   -07 36.0    0.00601  1.015   163.6    16.3    18.6
2006 05 08    13 14.15   -09 51.2    0.00456  1.013   153.6    26.3    18.3
2006 05 09    11 52.46   -12 54.2    0.00340  1.012   134.0    45.9    18.2
2006 05 10    09 37.43   -14 17.1    0.00290  1.010   101.4    78.4    18.9
2006 05 11    07 22.96   -11 00.2    0.00338  1.009    68.6   111.2    20.7
2006 05 12    06 01.91   -07 05.4    0.00454  1.007    48.3   131.5    23.0
2006 05 13    05 17.29   -04 29.0    0.00599  1.006    37.1   142.7    24.9
2006 05 14    04 50.64   -02 49.1    0.00756  1.004    30.4   149.3    26.5
2006 05 15    04 33.26   -01 41.7    0.00918  1.003    26.3   153.5    27.8

Timothy B. Spahr             (C) Copyright 2006 MPC           M.P.E.C. 2006-J38

Read MPEC 2006-J37 Read MPEC 2006-J39


Our Web policy. Index to the CBAT/MPC/ICQ pages.


Valid HTML 4.01!